Location: Arthez
(43.0833°N, 0.2500°W)
Time: 03:55:34
(UTC+00:00)

DMSP B5D1-3 - Pass Details

Date: 23 October 2021
Orbit: 767 x 779 km, 98.5° (Epoch: 27 November)

Event Time Altitude Azimuth Distance (km) Brightness Sun altitude
Rises 18:58:19 0° 13° (NNE) 3,265 7.7 -21.2°
Reaches altitude 10° 19:00:38 10° 14° (NNE) 2,335 6.9 -21.7°
Maximum altitude 19:05:48 90° 100° (E) 784 4.4 -22.6°
Drops below altitude 10° 19:10:57 10° 195° (SSW) 2,324 7.1 -23.5°
Sets 19:13:15 0° 195° (SSW) 3,248 7.9 -24.0°
